Tacoma Narrows, WA
on Tuesday, December 25, 2012

Tuesday
Previous Day Next Day
Daily Summary
 ActualAverageRecord
Temperature
Mean Temperature °F °F  
Max Temperature 41°F 43°F 54°F (2005)
Min Temperature 33°F 36°F 28°F (2001)
Degree Days
Heating Degree Days 28    
Moisture
Dew Point 35°F   
Average Humidity 88    
Maximum Humidity 93    
Minimum Humidity 79    
Precipitation
Precipitation 0.42 in in in ()
Wind
Wind Speed 2 mph   
Max Wind Speed 8 mph   
Max Gust Speed mph   
Visibility 8 miles   
Events Rain , Snow   
Averages and records for this station are not official NWS values.
Key: T is trace of precipitation, MM is missing value
Source: NWS Daily Summary
Seasonal Weather Averages
Time(PST)TemperatureDew PointHumidity Pressure Visibility Wind DirectionWind SpeedGust SpeedPrecipitationEvents Conditions
12:53 AM 39.0°F 33.1°F 79% 30.02 in 10.0 miles NNE 5.8 mph - N/A   Clear
1:53 AM 39.0°F 33.1°F 79% 29.99 in 10.0 miles Calm Calm - N/A   Mostly Cloudy
2:53 AM 39.0°F 33.1°F 79% 29.95 in 10.0 miles Calm Calm - N/A   Overcast
3:53 AM 37.9°F 34.0°F 86% 29.92 in 10.0 miles West 3.5 mph - N/A   Overcast
4:26 AM 37.4°F 35.6°F 93% 29.88 in 10.0 miles Calm Calm - N/A   Overcast
4:53 AM 37.9°F 35.1°F 89% 29.87 in 10.0 miles NW 3.5 mph - N/A   Overcast
5:53 AM 37.9°F 35.1°F 89% 29.84 in 10.0 miles Calm Calm - 0.00 in Rain Light Rain
6:31 AM 39.2°F 33.8°F 81% 29.81 in 9.0 miles Calm Calm - 0.02 in Rain Light Rain
6:53 AM 37.9°F 34.0°F 86% 29.81 in 7.0 miles Calm Calm - 0.04 in Rain Light Rain
7:42 AM 37.4°F 33.8°F 87% 29.77 in 7.0 miles Calm Calm - 0.08 in Rain Light Rain
7:53 AM 37.0°F 33.1°F 86% 29.77 in 6.0 miles Calm Calm - 0.10 in Rain Light Rain
8:20 AM 35.6°F 33.8°F 93% 29.75 in 4.0 miles NE 5.8 mph - 0.08 in Rain Rain
8:53 AM 34.0°F 32.0°F 92% 29.74 in 6.0 miles NNE 6.9 mph - 0.11 in Snow Light Snow
9:03 AM 33.8°F 32.0°F 93% 29.72 in 5.0 miles NNE 6.9 mph - 0.00 in Rain Light Rain
9:12 AM 35.6°F 32.0°F 87% 29.72 in 7.0 miles North 5.8 mph - 0.00 in Rain Light Freezing Rain
9:40 AM 37.4°F 33.8°F 87% 29.71 in 6.0 miles NNE 8.1 mph - 0.00 in Rain Light Rain
9:53 AM 37.0°F 34.0°F 89% 29.72 in 6.0 miles Variable 3.5 mph - 0.00 in Rain Light Rain
10:53 AM 37.9°F 35.1°F 89% 29.70 in 8.0 miles Calm Calm - 0.06 in Rain Light Rain
11:53 AM 39.0°F 36.0°F 89% 29.68 in 8.0 miles NE 4.6 mph - 0.05 in Rain Light Rain
12:53 PM 39.9°F 37.0°F 89% 29.68 in 7.0 miles Calm Calm - 0.03 in Rain Light Rain
1:09 PM 39.2°F 37.4°F 93% 29.67 in 8.0 miles Calm Calm - 0.01 in Rain Light Rain
1:53 PM 39.9°F 37.0°F 89% 29.67 in 10.0 miles Calm Calm - 0.01 in   Overcast
2:53 PM 41.0°F 37.9°F 89% 29.67 in 10.0 miles Calm Calm - 0.01 in Rain Light Rain
3:53 PM 41.0°F 37.9°F 89% 29.67 in 10.0 miles North 6.9 mph - N/A   Overcast
4:53 PM 39.9°F 37.9°F 93% 29.67 in 10.0 miles NNE 4.6 mph - N/A   Overcast
5:53 PM 39.9°F 37.0°F 89% 29.67 in 10.0 miles NE 3.5 mph - 0.00 in   Overcast
6:53 PM 41.0°F 36.0°F 82% 29.67 in 10.0 miles NE 3.5 mph - N/A   Overcast
7:53 PM 41.0°F 35.1°F 79% 29.67 in 10.0 miles Calm Calm - 0.01 in   Overcast
8:53 PM 39.9°F 36.0°F 86% 29.68 in 10.0 miles Calm Calm - 0.00 in Rain Light Rain
9:53 PM 39.0°F 37.0°F 93% 29.69 in 8.0 miles Calm Calm - 0.00 in Rain Light Rain
10:22 PM 39.2°F 37.4°F 93% 29.69 in 1.5 miles Calm Calm - 0.00 in   Overcast
10:38 PM 39.2°F 37.4°F 93% 29.69 in 3.0 miles Calm Calm - 0.00 in Rain Light Rain
10:53 PM 39.0°F 37.0°F 93% 29.71 in 9.0 miles Calm Calm - 0.00 in   Overcast
11:53 PM 39.9°F 37.0°F 89% 29.70 in 10.0 miles Calm Calm - N/A   Overcast
Moon Phase
Dec. 25 Dec. 28 Jan. 04 Jan. 11 Jan. 18
Sunrise:07:56 AM (PST) Moon Rise:02:40 PM (PST)12/25
Sunset:04:25 PM (PST) Moon Set:05:30 AM (PST)12/25

Copyright © 2014 The Weather Underground, Inc.